This is the latest recevied weather packets stored in our database for station/object N4YH-13. If no packets are shown the sender has not sent any weather packets the latest 10 day(s).
| Time | Temp. | Humidity | Pressure | Rain* | Wind** | Luminosity | Snow |
|---|---|---|---|---|---|---|---|
| 1778175483 | 15.56° C | 77% | 1011.9 hPa | 0 mm | - | - | - |
| 1778175363 | 15.56° C | 75% | 1011.9 hPa | 0 mm | - | - | - |
| 1778175244 | 16.11° C | 75% | 1011.9 hPa | 0 mm | - | - | - |
| 1778175124 | 16.11° C | 74% | 1012.2 hPa | 0 mm | - | - | - |
| 1778175004 | 16.11° C | 76% | 1012.2 hPa | 0 mm | - | - | - |
| 1778174884 | 16.11° C | 78% | 1012.2 hPa | 0 mm | - | - | - |
| 1778174764 | 16.11° C | 76% | 1012.2 hPa | 0 mm | - | - | - |
| 1778174643 | 16.11° C | 75% | 1012.2 hPa | 0 mm | - | - | - |
| 1778174523 | 16.11° C | 76% | 1012.2 hPa | 0 mm | - | - | - |
| 1778174403 | 16.11° C | 80% | 1012.2 hPa | 0 mm | - | - | - |
| 1778174284 | 15.56° C | 81% | 1012.3 hPa | 0 mm | - | - | - |
| 1778174164 | 15.56° C | 82% | 1012.3 hPa | 0 mm | - | - | - |
| 1778174044 | 15.56° C | 82% | 1012.1 hPa | 0 mm | - | - | - |
| 1778173924 | 15° C | 83% | 1012.2 hPa | 0 mm | - | - | - |
| 1778173803 | 14.44° C | 81% | 1012.1 hPa | 0 mm | - | - | - |
| 1778173683 | 14.44° C | 79% | 1012.1 hPa | 0 mm | - | - | - |
| 1778173563 | 14.44° C | 79% | 1012.1 hPa | 0 mm | - | - | - |
| 1778173443 | 14.44° C | 79% | 1012.2 hPa | 0 mm | - | - | - |
| 1778173324 | 14.44° C | 77% | 1012.2 hPa | 0 mm | - | - | - |
| 1778173204 | 14.44° C | 79% | 1012.2 hPa | 0 mm | - | - | - |
| 1778173084 | 14.44° C | 84% | 1012.2 hPa | 0 mm | - | - | - |
| 1778172964 | 14.44° C | 81% | 1012.2 hPa | 0 mm | - | - | - |
| 1778172843 | 14.44° C | 82% | 1012.2 hPa | 0 mm | - | - | - |
| 1778172723 | 14.44° C | 83% | 1012.2 hPa | 0 mm | - | - | - |
| 1778172603 | 14.44° C | 82% | 1012.2 hPa | 0 mm | - | - | - |
* Rain latest hour (hover to see other rain measurements)
** Current wind speed in m/s (hover to see current wind gust speed)